WSF-M
导读
WSF-M(气象系统后续微波卫星)是美国太空部队主导的气象监测卫星项目首星,于2024年4月由SpaceX公司猎鹰9号火箭从范登堡太空部队基地发射入轨。卫星由BAE系统公司研制,运行于太阳同步轨道,配备先进传感器阵列,可测量海洋表面矢量风、观测近地轨道带电粒子,还能开展海冰观测、土壤湿度与积雪厚度监测,为气象预报、航天活动安全提供关键数据,用于替代上世纪60年代计划中老化的卫星,提升全球气象监测能力。
Basic Information
目录编号:
59481
目录名称:
WSF-M
国际标识:
2024-070A
轨道中心:
EARTH
卫星名称:
WSF-M
卫星全名:
--
卫星状态:
在轨 (已飞行883 天)
发射日期:
2024-04-11 UTC
国别 :
美国
(US)
星等 :
--
This satellite is enrolled in the Space Conjunction Data Service (SCDS) and the current flight risk assessment level is: No High Risk
Orbit Information
| 数据来源 | 国际轨道数据 | AOE轨道数据 |
| 星历时间 | 2026-09-11T14:48:50+0800 8小时前 查看轨道信息 | 2026-09-10T18:00:00+0800 1天前 查看轨道信息 |
| 半长轴 | 7200.957km | 7200.958km |
| 偏心率 | 0.0005865 | 0.0005781 |
| 轨道倾角 | 98.720° | 98.722° |
| 近地点辐角 | 77.580° | 79.660° |
| 升交点赤经 | 261.074° | 260.220° |
| 平近点角 | 282.604° | 167.338° |
| 近地点 | 818.596km | 818.658km |
| 远地点 | 827.044km | 826.984km |
| 周期 | 101.355分钟 | 101.355分钟 |
| 每日圈数 | 14.207493 | 14.207491 |
Detailed Information
使用方式:
暂无
2D Orbit Map
3D Orbit Map
Orbit Altitude Analysis Chart
Orbit Inclination Analysis Chart
Orbit Comprehensive Analysis Chart
View Comprehensive ChartConjunction Data List
| Event ID | Objects | TCA | Miss Dist (km) | Collision Risk Probability | Collision Risk Index (CRI) | Action |
|---|---|---|---|---|---|---|
| CDM_260911-231901-245605-948129 |
METEOR 2-7
(12456)
WSF-M
(59481) | 2026-09-11T 23:19:10+0000 |
2.306 km
极远距离 | 1.849577E-6 低风险 | 0.4 |
Miss Distance Evolution Trend with All Objects
Collision Probability Evolution Trend with All Objects

